Time,TemperatureF,DewpointF,PressureIn,WindDirection,WindDirectionDegrees,WindSpeedMPH,WindSpeedGustMPH,Humidity,HourlyPrecipIn,Conditions,Clouds,dailyrainin,SoftwareType,DateUTC
2013-08-11 00:00:00,73.5,71.7,30.07,N/A,-737280,0.0,-999.0,94,0.01,,,0.00,Wunderground v.1.15,2013-08-11 04:00:00,
2013-08-11 00:05:00,73.5,71.7,30.07,N/A,-737280,0.0,-999.0,94,0.01,,,0.00,Wunderground v.1.15,2013-08-11 04:05:00,
2013-08-11 00:10:00,73.5,71.7,30.07,N/A,-737280,0.0,-999.0,94,0.01,,,0.00,Wunderground v.1.15,2013-08-11 04:10:00,
2013-08-11 00:15:00,73.5,71.7,30.07,N/A,-737280,0.0,-999.0,94,0.01,,,0.00,Wunderground v.1.15,2013-08-11 04:15:00,
2013-08-11 00:20:00,73.5,71.7,30.07,N/A,-737280,0.0,-999.0,94,0.01,,,0.00,Wunderground v.1.15,2013-08-11 04:20:00,
2013-08-11 00:25:00,73.5,71.7,30.07,N/A,-737280,0.0,-999.0,94,0.01,,,0.00,Wunderground v.1.15,2013-08-11 04:25:00,
2013-08-11 00:30:00,73.5,71.7,30.07,N/A,-737280,0.0,-999.0,94,0.01,,,0.00,Wunderground v.1.15,2013-08-11 04:30:00,
2013-08-11 00:35:00,73.5,71.7,30.07,N/A,-737280,0.0,-999.0,94,0.01,,,0.00,Wunderground v.1.15,2013-08-11 04:35:00,
2013-08-11 00:40:00,73.5,71.7,30.07,N/A,-737280,0.0,-999.0,94,0.01,,,0.00,Wunderground v.1.15,2013-08-11 04:40:00,
2013-08-11 00:45:00,73.3,71.8,30.06,WSW,248,0.0,-999.0,95,0.00,,,0.00,Wunderground v.1.15,2013-08-11 04:45:00,
2013-08-11 00:50:00,73.3,71.8,30.06,WSW,248,0.0,-999.0,95,0.00,,,0.00,Wunderground v.1.15,2013-08-11 04:50:00,
2013-08-11 00:55:00,73.3,71.8,30.06,WSW,248,0.0,-999.0,95,0.00,,,0.00,Wunderground v.1.15,2013-08-11 04:55:00,
2013-08-11 01:00:00,73.3,71.8,30.06,WSW,248,0.0,-999.0,95,0.00,,,0.00,Wunderground v.1.15,2013-08-11 05:00:00,
2013-08-11 01:05:00,73.3,71.8,30.06,WSW,248,0.0,-999.0,95,0.00,,,0.00,Wunderground v.1.15,2013-08-11 05:05:00,
2013-08-11 01:10:00,73.3,71.8,30.06,WSW,248,0.0,-999.0,95,0.00,,,0.00,Wunderground v.1.15,2013-08-11 05:10:00,
2013-08-11 01:15:00,73.3,71.8,30.06,West,270,0.0,-999.0,95,0.00,,,0.00,Wunderground v.1.15,2013-08-11 05:15:00,
2013-08-11 01:20:00,73.3,71.8,30.06,West,270,0.0,-999.0,95,0.00,,,0.00,Wunderground v.1.15,2013-08-11 05:20:00,
2013-08-11 01:25:00,73.3,71.8,30.06,West,270,0.0,-999.0,95,0.00,,,0.00,Wunderground v.1.15,2013-08-11 05:25:00,
2013-08-11 01:30:00,73.3,71.8,30.06,West,270,0.0,-999.0,95,0.00,,,0.00,Wunderground v.1.15,2013-08-11 05:30:00,
2013-08-11 01:35:00,73.3,71.8,30.06,West,270,0.0,-999.0,95,0.00,,,0.00,Wunderground v.1.15,2013-08-11 05:35:00,
2013-08-11 01:40:00,73.3,71.8,30.06,West,270,0.0,-999.0,95,0.00,,,0.00,Wunderground v.1.15,2013-08-11 05:40:00,
2013-08-11 01:45:00,73.3,71.8,30.05,West,270,0.0,-999.0,95,0.00,,,0.00,Wunderground v.1.15,2013-08-11 05:45:00,
2013-08-11 01:50:00,73.3,71.8,30.05,West,270,0.0,-999.0,95,0.00,,,0.00,Wunderground v.1.15,2013-08-11 05:50:00,
2013-08-11 01:55:00,73.3,71.8,30.05,West,270,0.0,-999.0,95,0.00,,,0.00,Wunderground v.1.15,2013-08-11 05:55:00,
2013-08-11 02:00:00,73.3,71.8,30.05,West,270,0.0,-999.0,95,0.00,,,0.00,Wunderground v.1.15,2013-08-11 06:00:00,
2013-08-11 02:05:00,73.3,71.8,30.05,West,270,0.0,-999.0,95,0.00,,,0.00,Wunderground v.1.15,2013-08-11 06:05:00,
2013-08-11 02:10:00,73.3,71.8,30.05,West,270,0.0,-999.0,95,0.00,,,0.00,Wunderground v.1.15,2013-08-11 06:10:00,
2013-08-11 02:15:00,73.3,71.8,30.06,West,270,0.0,-999.0,95,0.00,,,0.00,Wunderground v.1.15,2013-08-11 06:15:00,
2013-08-11 02:20:00,73.3,71.8,30.06,West,270,0.0,-999.0,95,0.00,,,0.00,Wunderground v.1.15,2013-08-11 06:20:00,
2013-08-11 02:25:00,73.3,71.8,30.06,West,270,0.0,-999.0,95,0.00,,,0.00,Wunderground v.1.15,2013-08-11 06:25:00,
2013-08-11 02:30:00,73.3,71.8,30.06,West,270,0.0,-999.0,95,0.00,,,0.00,Wunderground v.1.15,2013-08-11 06:30:00,
2013-08-11 02:35:00,73.3,71.8,30.06,West,270,0.0,-999.0,95,0.00,,,0.00,Wunderground v.1.15,2013-08-11 06:35:00,
2013-08-11 02:40:00,73.3,71.8,30.06,West,270,0.0,-999.0,95,0.00,,,0.00,Wunderground v.1.15,2013-08-11 06:40:00,
2013-08-11 02:45:00,73.1,71.6,30.05,WSW,248,0.0,-999.0,95,0.00,,,0.00,Wunderground v.1.15,2013-08-11 06:45:00,
2013-08-11 02:50:00,73.1,71.6,30.05,WSW,248,0.0,-999.0,95,0.00,,,0.00,Wunderground v.1.15,2013-08-11 06:50:00,
2013-08-11 02:55:00,73.1,71.6,30.05,WSW,248,0.0,-999.0,95,0.00,,,0.00,Wunderground v.1.15,2013-08-11 06:55:00,
2013-08-11 03:00:00,73.1,71.6,30.05,WSW,248,0.0,-999.0,95,0.00,,,0.00,Wunderground v.1.15,2013-08-11 07:00:00,
2013-08-11 03:05:00,73.1,71.6,30.05,WSW,248,0.0,-999.0,95,0.00,,,0.00,Wunderground v.1.15,2013-08-11 07:05:00,
2013-08-11 03:10:00,73.1,71.6,30.05,WSW,248,0.0,-999.0,95,0.00,,,0.00,Wunderground v.1.15,2013-08-11 07:10:00,
2013-08-11 03:15:00,72.6,71.1,30.06,West,270,0.0,-999.0,95,0.00,,,0.00,Wunderground v.1.15,2013-08-11 07:15:00,
2013-08-11 03:20:00,72.6,71.1,30.06,West,270,0.0,-999.0,95,0.00,,,0.00,Wunderground v.1.15,2013-08-11 07:20:00,
2013-08-11 03:25:00,72.6,71.1,30.06,West,270,0.0,-999.0,95,0.00,,,0.00,Wunderground v.1.15,2013-08-11 07:25:00,
2013-08-11 03:30:00,72.6,71.1,30.06,West,270,0.0,-999.0,95,0.00,,,0.00,Wunderground v.1.15,2013-08-11 07:30:00,
2013-08-11 03:35:00,72.6,71.1,30.06,West,270,0.0,-999.0,95,0.00,,,0.00,Wunderground v.1.15,2013-08-11 07:35:00,
2013-08-11 03:40:00,72.6,71.1,30.06,West,270,0.0,-999.0,95,0.00,,,0.00,Wunderground v.1.15,2013-08-11 07:40:00,
2013-08-11 03:45:00,72.7,71.2,30.06,West,270,0.0,-999.0,95,0.00,,,0.00,Wunderground v.1.15,2013-08-11 07:45:00,
2013-08-11 03:50:00,72.7,71.2,30.06,West,270,0.0,-999.0,95,0.00,,,0.00,Wunderground v.1.15,2013-08-11 07:50:00,
2013-08-11 03:55:00,72.7,71.2,30.06,West,270,0.0,-999.0,95,0.00,,,0.00,Wunderground v.1.15,2013-08-11 07:55:00,
2013-08-11 04:00:00,72.7,71.2,30.06,West,270,0.0,-999.0,95,0.00,,,0.00,Wunderground v.1.15,2013-08-11 08:00:00,
2013-08-11 04:05:00,72.7,71.2,30.06,West,270,0.0,-999.0,95,0.00,,,0.00,Wunderground v.1.15,2013-08-11 08:05:00,
2013-08-11 04:10:00,72.7,71.2,30.06,West,270,0.0,-999.0,95,0.00,,,0.00,Wunderground v.1.15,2013-08-11 08:10:00,
2013-08-11 04:15:00,72.2,70.7,30.07,West,270,0.0,-999.0,95,0.00,,,0.00,Wunderground v.1.15,2013-08-11 08:15:00,
2013-08-11 04:20:00,72.2,70.7,30.07,West,270,0.0,-999.0,95,0.00,,,0.00,Wunderground v.1.15,2013-08-11 08:20:00,
2013-08-11 04:25:00,72.2,70.7,30.07,West,270,0.0,-999.0,95,0.00,,,0.00,Wunderground v.1.15,2013-08-11 08:25:00,
2013-08-11 04:30:00,72.2,70.7,30.07,West,270,0.0,-999.0,95,0.00,,,0.00,Wunderground v.1.15,2013-08-11 08:30:00,
2013-08-11 04:35:00,72.2,70.7,30.07,West,270,0.0,-999.0,95,0.00,,,0.00,Wunderground v.1.15,2013-08-11 08:35:00,
2013-08-11 04:40:00,72.2,70.7,30.07,West,270,0.0,-999.0,95,0.00,,,0.00,Wunderground v.1.15,2013-08-11 08:40:00,
2013-08-11 04:45:00,72.5,71.0,30.07,West,270,0.0,-999.0,95,0.00,,,0.00,Wunderground v.1.15,2013-08-11 08:45:00,
2013-08-11 04:50:00,72.5,71.0,30.07,West,270,0.0,-999.0,95,0.00,,,0.00,Wunderground v.1.15,2013-08-11 08:50:00,
2013-08-11 04:55:00,72.5,71.0,30.07,West,270,0.0,-999.0,95,0.00,,,0.00,Wunderground v.1.15,2013-08-11 08:55:00,
2013-08-11 05:00:00,72.5,71.0,30.07,West,270,0.0,-999.0,95,0.00,,,0.00,Wunderground v.1.15,2013-08-11 09:00:00,
2013-08-11 05:05:00,72.5,71.0,30.07,West,270,0.0,-999.0,95,0.00,,,0.00,Wunderground v.1.15,2013-08-11 09:05:00,
2013-08-11 05:10:00,72.5,71.0,30.07,West,270,0.0,-999.0,95,0.00,,,0.00,Wunderground v.1.15,2013-08-11 09:10:00,
2013-08-11 05:15:00,72.4,70.9,30.07,West,270,0.0,-999.0,95,0.00,,,0.00,Wunderground v.1.15,2013-08-11 09:15:00,
2013-08-11 05:20:00,72.4,70.9,30.07,West,270,0.0,-999.0,95,0.00,,,0.00,Wunderground v.1.15,2013-08-11 09:20:00,
2013-08-11 05:25:00,72.4,70.9,30.07,West,270,0.0,-999.0,95,0.00,,,0.00,Wunderground v.1.15,2013-08-11 09:25:00,
2013-08-11 05:30:00,72.4,70.9,30.07,West,270,0.0,-999.0,95,0.00,,,0.00,Wunderground v.1.15,2013-08-11 09:30:00,
2013-08-11 05:35:00,72.4,70.9,30.07,West,270,0.0,-999.0,95,0.00,,,0.00,Wunderground v.1.15,2013-08-11 09:35:00,
2013-08-11 05:40:00,72.4,70.9,30.07,West,270,0.0,-999.0,95,0.00,,,0.00,Wunderground v.1.15,2013-08-11 09:40:00,
2013-08-11 05:45:00,72.2,70.7,30.08,N/A,-737280,0.0,-999.0,95,0.00,,,0.00,Wunderground v.1.15,2013-08-11 09:45:00,
2013-08-11 05:50:00,72.2,70.7,30.08,N/A,-737280,0.0,-999.0,95,0.00,,,0.00,Wunderground v.1.15,2013-08-11 09:50:00,
2013-08-11 05:55:00,72.2,70.7,30.08,N/A,-737280,0.0,-999.0,95,0.00,,,0.00,Wunderground v.1.15,2013-08-11 09:55:00,
2013-08-11 06:00:00,72.2,70.7,30.08,N/A,-737280,0.0,-999.0,95,0.00,,,0.00,Wunderground v.1.15,2013-08-11 10:00:00,
2013-08-11 06:05:00,72.2,70.7,30.08,N/A,-737280,0.0,-999.0,95,0.00,,,0.00,Wunderground v.1.15,2013-08-11 10:05:00,
2013-08-11 06:10:00,72.2,70.7,30.08,N/A,-737280,0.0,-999.0,95,0.00,,,0.00,Wunderground v.1.15,2013-08-11 10:10:00,
2013-08-11 06:15:00,72.2,70.7,30.09,N/A,-737280,0.0,-999.0,95,0.00,,,0.00,Wunderground v.1.15,2013-08-11 10:15:00,
2013-08-11 06:20:00,72.2,70.7,30.09,N/A,-737280,0.0,-999.0,95,0.00,,,0.00,Wunderground v.1.15,2013-08-11 10:20:00,
2013-08-11 06:25:00,72.2,70.7,30.09,N/A,-737280,0.0,-999.0,95,0.00,,,0.00,Wunderground v.1.15,2013-08-11 10:25:00,
2013-08-11 06:30:00,72.2,70.7,30.09,N/A,-737280,0.0,-999.0,95,0.00,,,0.00,Wunderground v.1.15,2013-08-11 10:30:00,
2013-08-11 06:35:00,72.2,70.7,30.09,N/A,-737280,0.0,-999.0,95,0.00,,,0.00,Wunderground v.1.15,2013-08-11 10:35:00,
2013-08-11 06:40:00,72.2,70.7,30.09,N/A,-737280,0.0,-999.0,95,0.00,,,0.00,Wunderground v.1.15,2013-08-11 10:40:00,
2013-08-11 06:45:00,72.4,70.9,30.10,N/A,-737280,0.0,-999.0,95,0.00,,,0.00,Wunderground v.1.15,2013-08-11 10:45:00,
2013-08-11 06:50:00,72.4,70.9,30.10,N/A,-737280,0.0,-999.0,95,0.00,,,0.00,Wunderground v.1.15,2013-08-11 10:50:00,
2013-08-11 06:55:00,72.4,70.9,30.10,N/A,-737280,0.0,-999.0,95,0.00,,,0.00,Wunderground v.1.15,2013-08-11 10:55:00,
2013-08-11 07:00:00,72.4,70.9,30.10,N/A,-737280,0.0,-999.0,95,0.00,,,0.00,Wunderground v.1.15,2013-08-11 11:00:00,
2013-08-11 07:05:00,72.4,70.9,30.10,N/A,-737280,0.0,-999.0,95,0.00,,,0.00,Wunderground v.1.15,2013-08-11 11:05:00,
2013-08-11 07:10:00,72.4,70.9,30.10,N/A,-737280,0.0,-999.0,95,0.00,,,0.00,Wunderground v.1.15,2013-08-11 11:10:00,
2013-08-11 07:15:00,72.6,71.1,30.09,SW,225,0.0,-999.0,95,0.00,,,0.00,Wunderground v.1.15,2013-08-11 11:15:00,
2013-08-11 07:20:00,72.6,71.1,30.09,SW,225,0.0,-999.0,95,0.00,,,0.00,Wunderground v.1.15,2013-08-11 11:20:00,
2013-08-11 07:25:00,72.6,71.1,30.09,SW,225,0.0,-999.0,95,0.00,,,0.00,Wunderground v.1.15,2013-08-11 11:25:00,
2013-08-11 07:30:00,72.6,71.1,30.09,SW,225,0.0,-999.0,95,0.00,,,0.00,Wunderground v.1.15,2013-08-11 11:30:00,
2013-08-11 07:35:00,72.6,71.1,30.09,SW,225,0.0,-999.0,95,0.00,,,0.00,Wunderground v.1.15,2013-08-11 11:35:00,
2013-08-11 07:40:00,72.6,71.1,30.09,SW,225,0.0,-999.0,95,0.00,,,0.00,Wunderground v.1.15,2013-08-11 11:40:00,
2013-08-11 07:45:00,73.1,71.9,30.09,N/A,-737280,0.0,-999.0,96,0.00,,,0.00,Wunderground v.1.15,2013-08-11 11:45:00,
2013-08-11 07:50:00,73.1,71.9,30.09,N/A,-737280,0.0,-999.0,96,0.00,,,0.00,Wunderground v.1.15,2013-08-11 11:50:00,
2013-08-11 07:55:00,73.1,71.9,30.09,N/A,-737280,0.0,-999.0,96,0.00,,,0.00,Wunderground v.1.15,2013-08-11 11:55:00,
2013-08-11 08:00:00,73.1,71.9,30.09,N/A,-737280,0.0,-999.0,96,0.00,,,0.00,Wunderground v.1.15,2013-08-11 12:00:00,
2013-08-11 08:05:00,73.1,71.9,30.09,N/A,-737280,0.0,-999.0,96,0.00,,,0.00,Wunderground v.1.15,2013-08-11 12:05:00,
2013-08-11 08:10:00,73.1,71.9,30.09,N/A,-737280,0.0,-999.0,96,0.00,,,0.00,Wunderground v.1.15,2013-08-11 12:10:00,
2013-08-11 08:15:00,74.0,72.5,30.10,N/A,-737280,0.0,-999.0,95,0.00,,,0.00,Wunderground v.1.15,2013-08-11 12:15:00,
2013-08-11 08:20:00,73.7,72.2,30.10,SE,138,0.0,0.0,95,0.00,,,0.00,Wunderground v.1.15,2013-08-11 12:20:00,
2013-08-11 08:25:00,74.0,72.5,30.10,N/A,-737280,0.0,-999.0,95,0.00,,,0.00,Wunderground v.1.15,2013-08-11 12:25:00,
2013-08-11 08:30:00,74.0,72.5,30.10,N/A,-737280,0.0,-999.0,95,0.00,,,0.00,Wunderground v.1.15,2013-08-11 12:30:00,
2013-08-11 08:35:00,74.0,72.5,30.10,N/A,-737280,0.0,-999.0,95,0.00,,,0.00,Wunderground v.1.15,2013-08-11 12:35:00,
2013-08-11 08:40:00,74.0,72.5,30.10,N/A,-737280,0.0,-999.0,95,0.00,,,0.00,Wunderground v.1.15,2013-08-11 12:40:00,
2013-08-11 08:45:00,74.9,73.1,30.10,SSW,203,0.0,-999.0,94,0.00,,,0.00,Wunderground v.1.15,2013-08-11 12:45:00,
2013-08-11 08:50:00,74.9,73.1,30.10,SSW,203,0.0,-999.0,94,0.00,,,0.00,Wunderground v.1.15,2013-08-11 12:50:00,
2013-08-11 08:55:00,74.9,73.1,30.10,SSW,203,0.0,-999.0,94,0.00,,,0.00,Wunderground v.1.15,2013-08-11 12:55:00,
2013-08-11 09:00:00,74.9,73.1,30.10,SSW,203,0.0,-999.0,94,0.00,,,0.00,Wunderground v.1.15,2013-08-11 13:00:00,
2013-08-11 09:05:00,74.9,73.1,30.10,SSW,203,0.0,-999.0,94,0.00,,,0.00,Wunderground v.1.15,2013-08-11 13:05:00,
2013-08-11 09:10:00,74.9,73.1,30.10,SSW,203,0.0,-999.0,94,0.00,,,0.00,Wunderground v.1.15,2013-08-11 13:10:00,
2013-08-11 09:15:00,75.7,72.9,30.11,West,270,2.0,-999.0,91,0.00,,,0.00,Wunderground v.1.15,2013-08-11 13:15:00,
2013-08-11 09:20:00,75.7,72.9,30.11,West,270,2.0,-999.0,91,0.00,,,0.00,Wunderground v.1.15,2013-08-11 13:20:00,
2013-08-11 09:25:00,75.7,72.9,30.11,West,270,2.0,-999.0,91,0.00,,,0.00,Wunderground v.1.15,2013-08-11 13:25:00,
2013-08-11 09:30:00,75.7,72.9,30.11,West,270,2.0,-999.0,91,0.00,,,0.00,Wunderground v.1.15,2013-08-11 13:30:00,
2013-08-11 09:35:00,75.7,72.9,30.11,West,270,2.0,-999.0,91,0.00,,,0.00,Wunderground v.1.15,2013-08-11 13:35:00,
2013-08-11 09:40:00,75.7,72.9,30.11,West,270,2.0,-999.0,91,0.00,,,0.00,Wunderground v.1.15,2013-08-11 13:40:00,
2013-08-11 09:45:00,76.8,73.6,30.11,WSW,248,2.0,-999.0,90,0.00,,,0.00,Wunderground v.1.15,2013-08-11 13:45:00,
2013-08-11 09:50:00,76.8,73.6,30.11,WSW,248,2.0,-999.0,90,0.00,,,0.00,Wunderground v.1.15,2013-08-11 13:50:00,
2013-08-11 09:55:00,76.8,73.6,30.11,WSW,248,2.0,-999.0,90,0.00,,,0.00,Wunderground v.1.15,2013-08-11 13:55:00,
2013-08-11 10:00:00,76.8,73.6,30.11,WSW,248,2.0,-999.0,90,0.00,,,0.00,Wunderground v.1.15,2013-08-11 14:00:00,
2013-08-11 10:05:00,76.8,73.6,30.11,WSW,248,2.0,-999.0,90,0.00,,,0.00,Wunderground v.1.15,2013-08-11 14:05:00,
2013-08-11 10:10:00,76.8,73.6,30.11,WSW,248,2.0,-999.0,90,0.00,,,0.00,Wunderground v.1.15,2013-08-11 14:10:00,
2013-08-11 10:15:00,78.3,74.1,30.10,WSW,248,2.0,-999.0,87,0.00,,,0.00,Wunderground v.1.15,2013-08-11 14:15:00,
2013-08-11 10:20:00,78.3,74.1,30.10,WSW,248,2.0,-999.0,87,0.00,,,0.00,Wunderground v.1.15,2013-08-11 14:20:00,
2013-08-11 10:25:00,78.3,74.1,30.10,WSW,248,2.0,-999.0,87,0.00,,,0.00,Wunderground v.1.15,2013-08-11 14:25:00,
2013-08-11 10:30:00,78.3,74.1,30.10,WSW,248,2.0,-999.0,87,0.00,,,0.00,Wunderground v.1.15,2013-08-11 14:30:00,
2013-08-11 10:35:00,78.3,74.1,30.10,WSW,248,2.0,-999.0,87,0.00,,,0.00,Wunderground v.1.15,2013-08-11 14:35:00,
2013-08-11 10:40:00,78.3,74.1,30.10,WSW,248,2.0,-999.0,87,0.00,,,0.00,Wunderground v.1.15,2013-08-11 14:40:00,
2013-08-11 10:45:00,79.8,75.2,30.10,WSW,248,1.0,-999.0,86,0.00,,,0.00,Wunderground v.1.15,2013-08-11 14:45:00,
2013-08-11 10:50:00,79.8,75.2,30.10,WSW,248,1.0,-999.0,86,0.00,,,0.00,Wunderground v.1.15,2013-08-11 14:50:00,
2013-08-11 10:55:00,79.8,75.2,30.10,WSW,248,1.0,-999.0,86,0.00,,,0.00,Wunderground v.1.15,2013-08-11 14:55:00,
2013-08-11 11:00:00,79.8,75.2,30.10,WSW,248,1.0,-999.0,86,0.00,,,0.00,Wunderground v.1.15,2013-08-11 15:00:00,
2013-08-11 11:05:00,79.8,75.2,30.10,WSW,248,1.0,-999.0,86,0.00,,,0.00,Wunderground v.1.15,2013-08-11 15:05:00,
2013-08-11 11:10:00,79.8,75.2,30.10,WSW,248,1.0,-999.0,86,0.00,,,0.00,Wunderground v.1.15,2013-08-11 15:10:00,
2013-08-11 11:15:00,81.4,76.1,30.10,West,270,1.0,-999.0,84,0.00,,,0.00,Wunderground v.1.15,2013-08-11 15:15:00,
2013-08-11 11:20:00,81.4,76.1,30.10,West,270,1.0,-999.0,84,0.00,,,0.00,Wunderground v.1.15,2013-08-11 15:20:00,
2013-08-11 11:25:00,81.4,76.1,30.10,West,270,1.0,-999.0,84,0.00,,,0.00,Wunderground v.1.15,2013-08-11 15:25:00,
2013-08-11 11:30:00,81.4,76.1,30.10,West,270,1.0,-999.0,84,0.00,,,0.00,Wunderground v.1.15,2013-08-11 15:30:00,
2013-08-11 11:35:00,81.4,76.1,30.10,West,270,1.0,-999.0,84,0.00,,,0.00,Wunderground v.1.15,2013-08-11 15:35:00,
2013-08-11 11:40:00,81.4,76.1,30.10,West,270,1.0,-999.0,84,0.00,,,0.00,Wunderground v.1.15,2013-08-11 15:40:00,
2013-08-11 11:45:00,83.1,75.5,30.09,WSW,248,2.0,-999.0,78,0.00,,,0.00,Wunderground v.1.15,2013-08-11 15:45:00,
2013-08-11 11:50:00,83.1,75.5,30.09,WSW,248,2.0,-999.0,78,0.00,,,0.00,Wunderground v.1.15,2013-08-11 15:50:00,
2013-08-11 11:55:00,83.1,75.5,30.09,WSW,248,2.0,-999.0,78,0.00,,,0.00,Wunderground v.1.15,2013-08-11 15:55:00,
2013-08-11 12:00:00,83.1,75.5,30.09,WSW,248,2.0,-999.0,78,0.00,,,0.00,Wunderground v.1.15,2013-08-11 16:00:00,
2013-08-11 12:05:00,83.1,75.5,30.09,WSW,248,2.0,-999.0,78,0.00,,,0.00,Wunderground v.1.15,2013-08-11 16:05:00,
2013-08-11 12:10:00,83.1,75.5,30.09,WSW,248,2.0,-999.0,78,0.00,,,0.00,Wunderground v.1.15,2013-08-11 16:10:00,
2013-08-11 12:15:00,85.7,78.0,30.08,WSW,248,1.0,-999.0,78,0.00,,,0.00,Wunderground v.1.15,2013-08-11 16:15:00,
2013-08-11 12:20:00,85.7,78.0,30.08,WSW,248,1.0,-999.0,78,0.00,,,0.00,Wunderground v.1.15,2013-08-11 16:20:00,
2013-08-11 12:25:00,85.7,78.0,30.08,WSW,248,1.0,-999.0,78,0.00,,,0.00,Wunderground v.1.15,2013-08-11 16:25:00,
2013-08-11 12:30:00,85.7,78.0,30.08,WSW,248,1.0,-999.0,78,0.00,,,0.00,Wunderground v.1.15,2013-08-11 16:30:00,
2013-08-11 12:35:00,85.7,78.0,30.08,WSW,248,1.0,-999.0,78,0.00,,,0.00,Wunderground v.1.15,2013-08-11 16:35:00,
2013-08-11 12:40:00,85.7,78.0,30.08,WSW,248,1.0,-999.0,78,0.00,,,0.00,Wunderground v.1.15,2013-08-11 16:40:00,
2013-08-11 12:45:00,86.7,77.0,30.08,West,270,0.0,-999.0,73,0.00,,,0.00,Wunderground v.1.15,2013-08-11 16:45:00,
2013-08-11 12:50:00,86.7,77.0,30.08,West,270,0.0,-999.0,73,0.00,,,0.00,Wunderground v.1.15,2013-08-11 16:50:00,
2013-08-11 12:55:00,86.7,77.0,30.08,West,270,0.0,-999.0,73,0.00,,,0.00,Wunderground v.1.15,2013-08-11 16:55:00,
2013-08-11 13:00:00,86.7,77.0,30.08,West,270,0.0,-999.0,73,0.00,,,0.00,Wunderground v.1.15,2013-08-11 17:00:00,
2013-08-11 13:05:00,86.7,77.0,30.08,West,270,0.0,-999.0,73,0.00,,,0.00,Wunderground v.1.15,2013-08-11 17:05:00,
2013-08-11 13:10:00,86.7,77.0,30.08,West,270,0.0,-999.0,73,0.00,,,0.00,Wunderground v.1.15,2013-08-11 17:10:00,
2013-08-11 13:15:00,87.5,76.5,30.07,West,270,1.0,-999.0,70,0.00,,,0.00,Wunderground v.1.15,2013-08-11 17:15:00,
2013-08-11 13:20:00,87.5,76.5,30.07,West,270,1.0,-999.0,70,0.00,,,0.00,Wunderground v.1.15,2013-08-11 17:20:00,
2013-08-11 13:25:00,87.5,76.5,30.07,West,270,1.0,-999.0,70,0.00,,,0.00,Wunderground v.1.15,2013-08-11 17:25:00,
2013-08-11 13:30:00,87.5,76.5,30.07,West,270,1.0,-999.0,70,0.00,,,0.00,Wunderground v.1.15,2013-08-11 17:30:00,
2013-08-11 13:35:00,87.5,76.5,30.07,West,270,1.0,-999.0,70,0.00,,,0.00,Wunderground v.1.15,2013-08-11 17:35:00,
2013-08-11 13:40:00,87.5,76.5,30.07,West,270,1.0,-999.0,70,0.00,,,0.00,Wunderground v.1.15,2013-08-11 17:40:00,
2013-08-11 13:45:00,89.4,75.6,30.06,West,270,0.0,-999.0,64,0.00,,,0.00,Wunderground v.1.15,2013-08-11 17:45:00,
2013-08-11 13:50:00,89.4,75.6,30.06,West,270,0.0,-999.0,64,0.00,,,0.00,Wunderground v.1.15,2013-08-11 17:50:00,
2013-08-11 13:55:00,89.4,75.6,30.06,West,270,0.0,-999.0,64,0.00,,,0.00,Wunderground v.1.15,2013-08-11 17:55:00,
2013-08-11 14:00:00,89.4,75.6,30.06,West,270,0.0,-999.0,64,0.00,,,0.00,Wunderground v.1.15,2013-08-11 18:00:00,
2013-08-11 14:05:00,89.4,75.6,30.06,West,270,0.0,-999.0,64,0.00,,,0.00,Wunderground v.1.15,2013-08-11 18:05:00,
2013-08-11 14:10:00,89.4,75.6,30.06,West,270,0.0,-999.0,64,0.00,,,0.00,Wunderground v.1.15,2013-08-11 18:10:00,
2013-08-11 14:15:00,89.4,77.9,30.05,West,270,1.0,-999.0,69,0.00,,,0.00,Wunderground v.1.15,2013-08-11 18:15:00,
2013-08-11 14:20:00,89.4,77.9,30.05,West,270,1.0,-999.0,69,0.00,,,0.00,Wunderground v.1.15,2013-08-11 18:20:00,
2013-08-11 14:25:00,89.4,77.9,30.05,West,270,1.0,-999.0,69,0.00,,,0.00,Wunderground v.1.15,2013-08-11 18:25:00,
2013-08-11 14:30:00,89.4,77.9,30.05,West,270,1.0,-999.0,69,0.00,,,0.00,Wunderground v.1.15,2013-08-11 18:30:00,
2013-08-11 14:35:00,89.4,77.9,30.05,West,270,1.0,-999.0,69,0.00,,,0.00,Wunderground v.1.15,2013-08-11 18:35:00,
2013-08-11 14:40:00,89.4,77.9,30.05,West,270,1.0,-999.0,69,0.00,,,0.00,Wunderground v.1.15,2013-08-11 18:40:00,
2013-08-11 14:45:00,89.2,75.4,30.04,West,270,1.0,-999.0,64,0.00,,,0.00,Wunderground v.1.15,2013-08-11 18:45:00,
2013-08-11 14:50:00,89.2,75.4,30.04,West,270,1.0,-999.0,64,0.00,,,0.00,Wunderground v.1.15,2013-08-11 18:50:00,
2013-08-11 14:55:00,89.2,75.4,30.04,West,270,1.0,-999.0,64,0.00,,,0.00,Wunderground v.1.15,2013-08-11 18:55:00,
2013-08-11 15:00:00,89.2,75.4,30.04,West,270,1.0,-999.0,64,0.00,,,0.00,Wunderground v.1.15,2013-08-11 19:00:00,
2013-08-11 15:05:00,89.2,75.4,30.04,West,270,1.0,-999.0,64,0.00,,,0.00,Wunderground v.1.15,2013-08-11 19:05:00,
2013-08-11 15:10:00,89.2,75.4,30.04,West,270,1.0,-999.0,64,0.00,,,0.00,Wunderground v.1.15,2013-08-11 19:10:00,
2013-08-11 15:15:00,89.2,75.4,30.03,SW,225,2.0,-999.0,64,0.00,,,0.00,Wunderground v.1.15,2013-08-11 19:15:00,
2013-08-11 15:20:00,89.2,75.4,30.03,SW,225,2.0,-999.0,64,0.00,,,0.00,Wunderground v.1.15,2013-08-11 19:20:00,
2013-08-11 15:25:00,89.2,75.4,30.03,SW,225,2.0,-999.0,64,0.00,,,0.00,Wunderground v.1.15,2013-08-11 19:25:00,
2013-08-11 15:30:00,89.2,75.4,30.03,SW,225,2.0,-999.0,64,0.00,,,0.00,Wunderground v.1.15,2013-08-11 19:30:00,
2013-08-11 15:35:00,89.2,75.4,30.03,SW,225,2.0,-999.0,64,0.00,,,0.00,Wunderground v.1.15,2013-08-11 19:35:00,
2013-08-11 15:40:00,89.2,75.4,30.03,SW,225,2.0,-999.0,64,0.00,,,0.00,Wunderground v.1.15,2013-08-11 19:40:00,
2013-08-11 15:45:00,90.4,76.6,30.02,West,270,1.0,-999.0,64,0.00,,,0.00,Wunderground v.1.15,2013-08-11 19:45:00,
2013-08-11 15:50:00,90.4,76.6,30.02,West,270,1.0,-999.0,64,0.00,,,0.00,Wunderground v.1.15,2013-08-11 19:50:00,
2013-08-11 15:55:00,90.4,76.6,30.02,West,270,1.0,-999.0,64,0.00,,,0.00,Wunderground v.1.15,2013-08-11 19:55:00,
2013-08-11 16:00:00,90.4,76.6,30.02,West,270,1.0,-999.0,64,0.00,,,0.00,Wunderground v.1.15,2013-08-11 20:00:00,
2013-08-11 16:05:00,90.4,76.6,30.02,West,270,1.0,-999.0,64,0.00,,,0.00,Wunderground v.1.15,2013-08-11 20:05:00,
2013-08-11 16:10:00,90.4,76.6,30.02,West,270,1.0,-999.0,64,0.00,,,0.00,Wunderground v.1.15,2013-08-11 20:10:00,
2013-08-11 16:15:00,91.4,78.0,30.01,West,271,1.0,1.0,65,0.00,,,0.00,Wunderground v.1.15,2013-08-11 20:15:00,
2013-08-11 16:20:00,91.4,76.1,30.01,SSE,163,1.0,1.0,61,0.00,,,0.00,Wunderground v.1.15,2013-08-11 20:20:00,
2013-08-11 16:25:00,91.5,77.1,30.01,West,269,1.0,3.0,63,0.00,,,0.00,Wunderground v.1.15,2013-08-11 20:25:00,
2013-08-11 16:30:00,91.3,76.9,30.01,West,275,1.0,3.0,63,0.00,,,0.00,Wunderground v.1.15,2013-08-11 20:30:00,
2013-08-11 16:35:00,91.2,76.8,30.01,West,275,1.0,1.0,63,0.00,,,0.00,Wunderground v.1.15,2013-08-11 20:35:00,
2013-08-11 16:40:00,91.1,76.7,30.01,West,275,0.0,1.0,63,0.00,,,0.00,Wunderground v.1.15,2013-08-11 20:40:00,
2013-08-11 16:45:00,90.5,76.2,30.01,West,274,0.0,0.0,63,0.00,,,0.00,Wunderground v.1.15,2013-08-11 20:45:00,
2013-08-11 16:50:00,90.2,76.4,30.01,West,274,0.0,1.0,64,0.00,,,0.00,Wunderground v.1.15,2013-08-11 20:50:00,
2013-08-11 16:55:00,89.3,75.5,30.01,WSW,255,1.0,3.0,64,0.00,,,0.00,Wunderground v.1.15,2013-08-11 20:55:00,
2013-08-11 17:00:00,88.3,75.5,30.01,West,261,2.0,2.0,66,0.00,,,0.00,Wunderground v.1.15,2013-08-11 21:00:00,
2013-08-11 17:05:00,87.7,74.9,30.01,West,268,2.0,4.0,66,0.00,,,0.00,Wunderground v.1.15,2013-08-11 21:05:00,
2013-08-11 17:10:00,87.4,75.1,30.01,West,260,3.0,4.0,67,0.00,,,0.00,Wunderground v.1.15,2013-08-11 21:10:00,
2013-08-11 17:15:00,87.2,74.9,30.01,WSW,254,3.0,4.0,67,0.00,,,0.00,Wunderground v.1.15,2013-08-11 21:15:00,
2013-08-11 17:20:00,87.1,75.7,30.01,WSW,250,3.0,3.0,69,0.00,,,0.00,Wunderground v.1.15,2013-08-11 21:20:00,
2013-08-11 17:25:00,87.1,75.7,30.01,WSW,248,2.0,3.0,69,0.00,,,0.00,Wunderground v.1.15,2013-08-11 21:25:00,
2013-08-11 17:30:00,87.1,76.1,30.02,WSW,248,1.0,1.0,70,0.00,,,0.00,Wunderground v.1.15,2013-08-11 21:30:00,
2013-08-11 17:35:00,87.1,76.1,30.02,WSW,248,0.0,1.0,70,0.00,,,0.00,Wunderground v.1.15,2013-08-11 21:35:00,
2013-08-11 17:40:00,87.0,76.0,30.01,WSW,248,1.0,2.0,70,0.00,,,0.00,Wunderground v.1.15,2013-08-11 21:40:00,
2013-08-11 17:45:00,86.8,75.4,30.01,West,260,2.0,2.0,69,0.00,,,0.00,Wunderground v.1.15,2013-08-11 21:45:00,
2013-08-11 17:50:00,86.8,76.7,30.02,West,260,1.0,1.0,72,0.00,,,0.00,Wunderground v.1.15,2013-08-11 21:50:00,
2013-08-11 17:55:00,86.7,75.7,30.02,WSW,258,1.0,1.0,70,0.00,,,0.00,Wunderground v.1.15,2013-08-11 21:55:00,
2013-08-11 18:00:00,86.6,75.6,30.02,WSW,253,2.0,2.0,70,0.00,,,0.00,Wunderground v.1.15,2013-08-11 22:00:00,
2013-08-11 18:05:00,86.8,76.3,30.01,WSW,250,3.0,3.0,71,0.00,,,0.00,Wunderground v.1.15,2013-08-11 22:05:00,
2013-08-11 18:10:00,86.9,75.5,30.01,West,274,2.0,4.0,69,0.00,,,0.00,Wunderground v.1.15,2013-08-11 22:10:00,
2013-08-11 18:15:00,86.8,75.8,30.01,WSW,242,3.0,4.0,70,0.00,,,0.00,Wunderground v.1.15,2013-08-11 22:15:00,
2013-08-11 18:20:00,86.5,76.0,30.01,WSW,241,3.0,3.0,71,0.00,,,0.00,Wunderground v.1.15,2013-08-11 22:20:00,
2013-08-11 18:25:00,86.5,76.4,30.01,WSW,241,1.0,4.0,72,0.00,,,0.00,Wunderground v.1.15,2013-08-11 22:25:00,
2013-08-11 18:30:00,86.3,76.6,30.01,WSW,244,1.0,4.0,73,0.00,,,0.00,Wunderground v.1.15,2013-08-11 22:30:00,
2013-08-11 18:35:00,86.2,76.1,30.01,WSW,245,2.0,4.0,72,0.00,,,0.00,Wunderground v.1.15,2013-08-11 22:35:00,
2013-08-11 18:40:00,86.0,75.9,30.01,WSW,250,1.0,4.0,72,0.00,,,0.00,Wunderground v.1.15,2013-08-11 22:40:00,
2013-08-11 18:45:00,85.9,75.8,30.01,West,263,2.0,4.0,72,0.00,,,0.00,Wunderground v.1.15,2013-08-11 22:45:00,
2013-08-11 18:50:00,85.7,76.0,30.01,West,263,1.0,1.0,73,0.00,,,0.00,Wunderground v.1.15,2013-08-11 22:50:00,
2013-08-11 18:55:00,85.6,76.4,30.01,West,263,1.0,4.0,74,0.00,,,0.00,Wunderground v.1.15,2013-08-11 22:55:00,
2013-08-11 19:00:00,85.4,76.2,30.01,West,262,1.0,1.0,74,0.00,,,0.00,Wunderground v.1.15,2013-08-11 23:00:00,
2013-08-11 19:05:00,85.2,76.0,30.01,WSW,252,1.0,2.0,74,0.00,,,0.00,Wunderground v.1.15,2013-08-11 23:05:00,
2013-08-11 19:10:00,84.9,76.1,30.01,WSW,243,2.0,4.0,75,0.00,,,0.00,Wunderground v.1.15,2013-08-11 23:10:00,
2013-08-11 19:15:00,84.7,76.3,30.01,SW,236,3.0,4.0,76,0.00,,,0.00,Wunderground v.1.15,2013-08-11 23:15:00,
2013-08-11 19:20:00,84.5,76.1,30.01,WSW,246,3.0,3.0,76,0.00,,,0.00,Wunderground v.1.15,2013-08-11 23:20:00,
2013-08-11 19:25:00,84.2,76.2,30.01,WSW,248,2.0,-999.0,77,0.00,,,0.00,Wunderground v.1.15,2013-08-11 23:25:00,
2013-08-11 19:30:00,84.2,76.2,30.01,WSW,256,2.0,4.0,77,0.00,,,0.00,Wunderground v.1.15,2013-08-11 23:30:00,
2013-08-11 19:35:00,84.1,76.1,30.02,West,281,1.0,9.0,77,0.00,,,0.00,Wunderground v.1.15,2013-08-11 23:35:00,
2013-08-11 19:40:00,84.1,76.1,30.02,WNW,288,2.0,4.0,77,0.00,,,0.00,Wunderground v.1.15,2013-08-11 23:40:00,
2013-08-11 19:45:00,84.0,76.0,30.02,WSW,252,3.0,4.0,77,0.00,,,0.00,Wunderground v.1.15,2013-08-11 23:45:00,
2013-08-11 19:50:00,83.8,76.2,30.02,West,262,3.0,4.0,78,0.00,,,0.00,Wunderground v.1.15,2013-08-11 23:50:00,
2013-08-11 19:55:00,83.7,76.5,30.02,WSW,245,3.0,4.0,79,0.00,,,0.00,Wunderground v.1.15,2013-08-11 23:55:00,
2013-08-11 20:00:00,83.5,76.3,30.02,WSW,247,3.0,4.0,79,0.00,,,0.00,Wunderground v.1.15,2013-08-12 00:00:00,
2013-08-11 20:05:00,83.4,76.6,30.02,WSW,248,3.0,4.0,80,0.00,,,0.00,Wunderground v.1.15,2013-08-12 00:05:00,
2013-08-11 20:10:00,83.2,76.4,30.02,WSW,248,2.0,2.0,80,0.00,,,0.00,Wunderground v.1.15,2013-08-12 00:10:00,
2013-08-11 20:15:00,83.1,76.3,30.02,West,271,2.0,4.0,80,0.00,,,0.00,Wunderground v.1.15,2013-08-12 00:15:00,
2013-08-11 20:20:00,83.0,76.2,30.02,WSW,248,2.0,4.0,80,0.00,,,0.00,Wunderground v.1.15,2013-08-12 00:20:00,
2013-08-11 20:25:00,82.8,76.4,30.02,West,259,2.0,4.0,81,0.00,,,0.00,Wunderground v.1.15,2013-08-12 00:25:00,
2013-08-11 20:30:00,82.6,76.2,30.02,WSW,246,2.0,4.0,81,0.00,,,0.00,Wunderground v.1.15,2013-08-12 00:30:00,
2013-08-11 20:35:00,82.5,76.1,30.02,West,265,3.0,4.0,81,0.00,,,0.00,Wunderground v.1.15,2013-08-12 00:35:00,
2013-08-11 20:40:00,82.3,75.9,30.02,WSW,253,3.0,4.0,81,0.00,,,0.00,Wunderground v.1.15,2013-08-12 00:40:00,
2013-08-11 20:45:00,82.2,75.8,30.02,WSW,250,3.0,4.0,81,0.00,,,0.00,Wunderground v.1.15,2013-08-12 00:45:00,
2013-08-11 20:50:00,82.1,76.1,30.02,West,260,3.0,4.0,82,0.00,,,0.00,Wunderground v.1.15,2013-08-12 00:50:00,
2013-08-11 20:55:00,81.9,75.9,30.02,WSW,249,2.0,4.0,82,0.00,,,0.00,Wunderground v.1.15,2013-08-12 00:55:00,
2013-08-11 21:00:00,81.8,75.8,30.02,WSW,246,2.0,2.0,82,0.00,,,0.00,Wunderground v.1.15,2013-08-12 01:00:00,
2013-08-11 21:05:00,81.5,75.5,30.02,WSW,238,2.0,5.0,82,0.00,,,0.00,Wunderground v.1.15,2013-08-12 01:05:00,
2013-08-11 21:10:00,81.4,75.7,30.02,WSW,238,3.0,3.0,83,0.00,,,0.00,Wunderground v.1.15,2013-08-12 01:10:00,
2013-08-11 21:15:00,81.2,75.5,30.03,West,266,3.0,4.0,83,0.00,,,0.00,Wunderground v.1.15,2013-08-12 01:15:00,
2013-08-11 21:20:00,81.2,75.5,30.02,WSW,246,3.0,3.0,83,0.00,,,0.00,Wunderground v.1.15,2013-08-12 01:20:00,
2013-08-11 21:25:00,81.0,75.7,30.03,WSW,248,2.0,-999.0,84,0.00,,,0.00,Wunderground v.1.15,2013-08-12 01:25:00,
2013-08-11 21:30:00,81.0,75.7,30.03,WSW,248,2.0,-999.0,84,0.00,,,0.00,Wunderground v.1.15,2013-08-12 01:30:00,
2013-08-11 21:35:00,81.0,75.7,30.03,WSW,248,2.0,-999.0,84,0.00,,,0.00,Wunderground v.1.15,2013-08-12 01:35:00,
2013-08-11 21:40:00,81.0,75.7,30.03,WSW,248,2.0,-999.0,84,0.00,,,0.00,Wunderground v.1.15,2013-08-12 01:40:00,
2013-08-11 21:45:00,80.1,75.5,30.04,West,270,1.0,-999.0,86,0.00,,,0.00,Wunderground v.1.15,2013-08-12 01:45:00,
2013-08-11 21:50:00,80.1,75.5,30.04,West,270,1.0,-999.0,86,0.00,,,0.00,Wunderground v.1.15,2013-08-12 01:50:00,
2013-08-11 21:55:00,80.1,75.5,30.04,West,270,1.0,-999.0,86,0.00,,,0.00,Wunderground v.1.15,2013-08-12 01:55:00,
2013-08-11 22:00:00,80.1,75.5,30.04,West,270,1.0,-999.0,86,0.00,,,0.00,Wunderground v.1.15,2013-08-12 02:00:00,
2013-08-11 22:05:00,80.1,75.5,30.04,West,270,1.0,-999.0,86,0.00,,,0.00,Wunderground v.1.15,2013-08-12 02:05:00,
2013-08-11 22:10:00,80.1,75.5,30.04,West,270,1.0,-999.0,86,0.00,,,0.00,Wunderground v.1.15,2013-08-12 02:10:00,
2013-08-11 22:15:00,79.6,75.0,30.05,West,270,1.0,-999.0,86,0.00,,,0.00,Wunderground v.1.15,2013-08-12 02:15:00,
2013-08-11 22:20:00,79.6,75.0,30.05,West,270,1.0,-999.0,86,0.00,,,0.00,Wunderground v.1.15,2013-08-12 02:20:00,
2013-08-11 22:25:00,79.6,75.0,30.05,West,270,1.0,-999.0,86,0.00,,,0.00,Wunderground v.1.15,2013-08-12 02:25:00,
2013-08-11 22:30:00,79.6,75.0,30.05,West,270,1.0,-999.0,86,0.00,,,0.00,Wunderground v.1.15,2013-08-12 02:30:00,
2013-08-11 22:35:00,79.6,75.0,30.05,West,270,1.0,-999.0,86,0.00,,,0.00,Wunderground v.1.15,2013-08-12 02:35:00,
2013-08-11 22:40:00,79.6,75.0,30.05,West,270,1.0,-999.0,86,0.00,,,0.00,Wunderground v.1.15,2013-08-12 02:40:00,
2013-08-11 22:45:00,79.3,74.7,30.05,WSW,248,3.0,-999.0,86,0.00,,,0.00,Wunderground v.1.15,2013-08-12 02:45:00,
2013-08-11 22:50:00,79.3,74.7,30.05,WSW,248,3.0,-999.0,86,0.00,,,0.00,Wunderground v.1.15,2013-08-12 02:50:00,
2013-08-11 22:55:00,79.3,74.7,30.05,WSW,248,3.0,-999.0,86,0.00,,,0.00,Wunderground v.1.15,2013-08-12 02:55:00,
2013-08-11 23:00:00,79.3,74.7,30.05,WSW,248,3.0,-999.0,86,0.00,,,0.00,Wunderground v.1.15,2013-08-12 03:00:00,
2013-08-11 23:05:00,79.3,74.7,30.05,WSW,248,3.0,-999.0,86,0.00,,,0.00,Wunderground v.1.15,2013-08-12 03:05:00,
2013-08-11 23:10:00,79.3,74.7,30.05,WSW,248,3.0,-999.0,86,0.00,,,0.00,Wunderground v.1.15,2013-08-12 03:10:00,
2013-08-11 23:15:00,78.7,74.5,30.03,West,270,1.0,-999.0,87,0.00,,,0.00,Wunderground v.1.15,2013-08-12 03:15:00,
2013-08-11 23:20:00,78.7,74.5,30.03,West,270,1.0,-999.0,87,0.00,,,0.00,Wunderground v.1.15,2013-08-12 03:20:00,
2013-08-11 23:25:00,78.7,74.5,30.03,West,270,1.0,-999.0,87,0.00,,,0.00,Wunderground v.1.15,2013-08-12 03:25:00,
2013-08-11 23:30:00,78.7,74.5,30.03,West,270,1.0,-999.0,87,0.00,,,0.00,Wunderground v.1.15,2013-08-12 03:30:00,
2013-08-11 23:35:00,78.7,74.5,30.03,West,270,1.0,-999.0,87,0.00,,,0.00,Wunderground v.1.15,2013-08-12 03:35:00,
2013-08-11 23:40:00,78.7,74.5,30.03,West,270,1.0,-999.0,87,0.00,,,0.00,Wunderground v.1.15,2013-08-12 03:40:00,
2013-08-11 23:45:00,78.3,74.1,30.03,West,270,2.0,-999.0,87,0.00,,,0.00,Wunderground v.1.15,2013-08-12 03:45:00,
2013-08-11 23:50:00,78.3,74.1,30.03,West,270,2.0,-999.0,87,0.00,,,0.00,Wunderground v.1.15,2013-08-12 03:50:00,
2013-08-11 23:55:00,78.3,74.1,30.03,West,270,2.0,-999.0,87,0.00,,,0.00,Wunderground v.1.15,2013-08-12 03:55:00,